This is the latest recevied weather packets stored in our database for station/object N9BID. If no packets are shown the sender has not sent any weather packets the latest 10 day(s).
| Time | Temp. | Humidity | Pressure | Rain* | Wind** | Luminosity | Snow |
|---|---|---|---|---|---|---|---|
| 1787746745 | 15.56° C | 99% | 1011.7 hPa | 0 mm | - | 38 W/m² | - |
| 1787746443 | 15.56° C | 99% | 1011.7 hPa | 0 mm | - | 33 W/m² | - |
| 1787746142 | 15.56° C | 99% | 1011.6 hPa | 0 mm | - | 30 W/m² | - |
| 1787745837 | 15.56° C | 99% | 1011.8 hPa | 0 mm | - | 26 W/m² | - |
| 1787745536 | 15.56° C | 99% | 1011.5 hPa | 0 mm | - | 23 W/m² | - |
| 1787745230 | 15.56° C | 99% | 1011.4 hPa | 0 mm | - | 19 W/m² | - |
| 1787744926 | 15.56° C | 99% | 1011.4 hPa | 0 mm | - | 18 W/m² | - |
| 1787744622 | 15.56° C | 99% | 1011.7 hPa | 0 mm | - | 14 W/m² | - |
| 1787744318 | 15.56° C | 99% | 1011.4 hPa | 0 mm | - | 11 W/m² | - |
| 1787744014 | 15.56° C | 99% | 1011.7 hPa | 0 mm | - | 8 W/m² | - |
| 1787743714 | 15.56° C | 99% | 1011.5 hPa | 0 mm | - | 6 W/m² | - |
| 1787743408 | 15.56° C | 99% | 1011.5 hPa | 0 mm | - | 3 W/m² | - |
| 1787743105 | 15.56° C | 99% | 1011.8 hPa | 0 mm | - | 1 W/m² | - |
| 1787742799 | 15.56° C | 99% | 1011.4 hPa | 0 mm | - | 0 W/m² | - |
| 1787742495 | 15.56° C | 99% | 1011.6 hPa | 0 mm | - | 0 W/m² | - |
| 1787742192 | 15.56° C | 99% | 1011.1 hPa | 0 mm | - | 0 W/m² | - |
| 1787741891 | 15.56° C | 99% | 1011.4 hPa | 0 mm | - | 0 W/m² | - |
| 1787741587 | 15.56° C | 99% | 1011.3 hPa | 0 mm | - | 0 W/m² | - |
| 1787741283 | 15.56° C | 99% | 1011.3 hPa | 0 mm | - | 0 W/m² | - |
| 1787740981 | 16.11° C | 99% | 1011.4 hPa | 0 mm | - | 0 W/m² | - |
| 1787740676 | 16.11° C | 99% | 1011.1 hPa | 0 mm | - | 0 W/m² | - |
| 1787740370 | 16.11° C | 99% | 1011.4 hPa | 0 mm | - | 0 W/m² | - |
| 1787740065 | 16.11° C | 99% | 1011.6 hPa | 0 mm | - | 0 W/m² | - |
| 1787739761 | 16.11° C | 99% | 1011.5 hPa | 0 mm | - | 0 W/m² | - |
| 1787739457 | 16.11° C | 99% | 1011.4 hPa | 0 mm | - | 0 W/m² | - |
* Rain latest hour (hover to see other rain measurements)
** Current wind speed in m/s (hover to see current wind gust speed)